Dewpoint
51 51 51 51 51 53 52 51 51 51 51 51 50 51 53 54 53 53 53 54 55 55 56 55 55 55 57 58 57 56 57 56 56 58 58 60 57 57 58 56 57 59 59 57 54 52 50 50 53 56 56 56 59 60 61 61 60 60 60 62 63 63 63
52 53 52 53 52 51 50 50 50 49 50 50 50 50 51 52 53 51 52 52 52 53 55 53 53 54 53 53 53 53 53 54 55 55 57 58 57 57 57 57 58 57 56 55 55 54 51 50 51 51 51 53 54 54 55 58 60 60 61 62 62 63 63
52 51 52 51 50 49 49 48 48 49 49 49 50 50 50 50 51 52 52 52 52 53 53 52 52 52 52 51 51 51 51 52 52 53 52 50 52 55 57 57 57 56 51 49 49 52 52 50 50 49 49 44 43 46 50 55 57 59 60 60 61 62 62
52 52 52 51 49 48 48 47 48 48 48 48 49 50 51 52 52 53 52 52 52 55 53 52 51 50 49 50 50 50 50 49 49 49 49 49 49 50 52 54 54 53 48 47 46 48 47 45 44 44 46 45 44 43 44 47 46 43 47 57 61 60 60
52 52 52 52 50 48 47 47 48 48 47 47 47 49 49 50 51 50 51 50 51 50 50 50 50 50 50 50 50 50 49 49 49 49 47 47 47 47 47 48 48 48 48 48 48 48 47 46 45 44 44 45 44 43 45 46 44 42 41 44 51 56 57
52 52 52 51 50 49 48 47 47 47 46 46 46 48 47 48 50 49 49 50 50 51 50 50 49 50 51 50 50 49 49 48 48 48 48 46 47 46 46 46 47 47 47 47 48 47 46 46 44 42 43 45 43 44 44 43 43 42 42 41 41 43 44
52 53 52 52 50 49 49 48 47 48 47 45 46 47 48 48 48 49 49 49 49 49 50 50 50 50 50 50 49 49 48 47 47 47 47 47 47 45 45 46 46 46 46 46 46 46 45 44 43 42 42 42 43 43 45 44 44 41 42 42 41 41 42
52 53 52 52 51 50 49 48 47 48 47 46 47 47 50 48 48 48 48 49 49 50 50 51 51 50 50 49 49 49 49 47 48 48 46 46 46 45 45 45 46 46 46 45 45 46 46 45 45 43 41 37 37 41 43 44 44 42 43 44 42 41 42
53 53 53 52 51 50 49 49 48 48 48 48 47 49 49 48 47 48 48 48 49 49 50 49 49 49 48 48 47 48 49 50 46 46 45 45 45 44 44 44 46 44 45 46 46 46 45 46 46 45 44 41 37 33 41 39 42 41 43 42 43 43 42
53 52 52 52 52 51 49 49 49 49 49 49 49 50 48 47 48 47 47 47 48 49 49 48 48 48 48 49 48 48 47 46 47 45 45 45 44 44 44 44 44 44 44 45 45 47 46 45 45 44 44 42 41 39 38 37 38 42 41 43 40 41 42
53 53 54 53 52 52 50 49 49 49 50 50 50 51 49 48 48 53 47 47 47 48 48 47 47 47 48 47 47 47 47 47 48 46 47 46 45 45 45 44 44 44 44 44 43 44 45 44 44 44 45 44 42 40 39 37 38 41 42 42 43 41 42
53 53 53 53 53 52 52 51 50 50 49 50 51 50 48 48 48 48 47 47 47 47 47 47 48 48 48 47 46 47 46 46 46 45 46 46 46 45 45 44 43 44 44 44 44 43 43 45 45 44 44 45 45 43 41 39 35 39 44 41 43 44 43
53 53 54 54 53 53 52 52 51 50 51 52 51 51 50 49 49 48 47 47 47 47 47 47 47 47 46 46 47 47 46 46 46 45 45 46 45 45 44 44 43 42 43 43 43 43 42 42 43 42 42 42 43 43 43 40 37 38 42 42 43 42 43
53 53 54 54 53 53 53 52 51 51 51 51 51 51 50 50 50 49 48 48 47 47 47 47 46 47 46 46 46 46 45 45 46 44 45 45 45 44 45 45 44 43 44 43 43 43 42 41 41 42 42 42 42 42 41 39 38 39 40 43 43 43 42
53 54 54 55 54 53 53 52 52 51 51 51 51 51 51 50 50 49 48 48 48 48 48 48 47 47 48 46 45 46 47 45 44 44 44 44 44 45 44 44 43 43 43 43 43 42 41 40 40 41 42 41 41 41 42 39 39 38 37 40 41 40 39
53 53 54 55 53 53 53 53 53 52 51 51 52 51 52 51 50 50 49 49 49 49 49 48 47 47 47 47 47 46 47 46 45 44 43 43 44 44 44 44 42 43 44 43 43 43 42 42 41 40 41 41 39 41 41 40 37 36 37 37 39 37 38
54 54 54 54 54 55 55 55 55 55 54 52 51 51 52 52 52 51 50 50 49 49 49 49 49 47 47 47 47 47 47 46 46 45 45 44 44 44 44 43 42 44 44 43 42 42 43 42 41 39 38 39 39 39 40 40 39 37 37 34 37 38 37
54 53 53 54 54 55 55 55 55 55 55 54 54 54 53 53 52 52 51 51 50 49 50 49 49 49 47 47 47 47 47 46 46 46 46 44 46 43 44 43 43 45 43 43 42 42 42 40 39 37 36 38 38 40 39 38 37 35 32 29 32 38 36
53 53 53 53 54 54 55 54 54 54 55 55 55 55 54 54 54 53 52 51 50 51 51 50 50 49 49 48 47 46 47 47 46 46 46 45 45 44 43 44 45 45 43 42 43 43 41 39 37 36 36 36 37 37 35 35 34 33 31 31 32 32 34
52 53 54 53 53 54 55 54 54 54 54 54 54 54 54 54 54 53 53 52 52 52 51 51 51 50 50 49 48 48 47 47 46 46 46 46 45 45 44 44 45 45 43 43 43 42 40 39 38 37 38 37 36 34 34 34 33 33 33 32 33 33 34
53 52 53 53 53 53 53 53 53 53 53 53 53 53 53 54 54 53 53 53 53 53 52 52 52 51 50 50 49 48 48 48 47 46 46 46 46 45 44 45 45 45 43 43 43 42 39 36 37 37 38 36 35 33 33 34 34 33 33 33 33 32 33
53 52 53 53 53 53 53 53 53 52 53 53 54 54 54 53 53 52 52 52 52 52 51 52 53 52 52 51 50 49 49 48 48 47 46 46 46 46 45 45 44 44 45 47 45 43 40 37 33 34 37 35 35 34 34 34 35 34 33 33 32 34 33
52 51 51 52 53 53 53 53 53 52 53 53 52 52 52 53 53 53 52 51 51 51 51 52 52 49 50 52 51 50 50 49 48 48 47 46 46 45 45 45 46 48 48 47 44 40 37 37 38 34 34 35 35 33 33 34 34 34 34 32 32 32 31
49 51 51 51 50 50 51 52 52 52 52 51 52 51 52 52 53 52 51 51 51 51 52 52 49 47 45 47 51 50 50 50 49 48 48 47 46 45 44 44 44 48 47 45 41 36 36 36 36 37 38 38 36 34 33 33 33 34 36 32 32 32 31
45 45 46 47 45 45 46 48 50 52 52 52 51 51 51 52 51 50 51 51 51 51 51 50 47 47 45 44 47 50 51 50 50 49 49 48 47 46 44 43 45 46 41 36 31 32 35 36 36 36 36 37 37 38 38 36 37 34 33 32 32 32 32
44 44 44 45 45 45 45 46 46 45 46 47 48 49 50 49 50 50 50 51 50 50 50 49 46 46 45 44 43 46 50 50 50 50 49 48 47 46 44 44 44 43 39 42 39 33 33 35 37 37 37 37 38 37 36 36 38 37 34 33 33 32 32
39 39 39 40 41 41 41 40 40 41 41 42 44 45 45 46 46 46 47 48 48 48 47 46 42 42 42 42 42 42 47 49 49 49 49 48 47 46 43 43 42 40 41 41 37 37 36 35 36 37 37 36 36 38 38 36 35 36 38 35 34 32 33
38 38 38 39 38 38 38 37 38 39 39 39 39 39 40 42 43 45 45 46 45 46 46 39 40 41 41 41 41 41 45 46 46 46 45 45 44 44 43 43 41 40 40 39 40 38 38 38 38 38 37 37 36 36 36 36 36 35 37 35 34 34 34
37 37 37 37 37 37 37 36 37 38 37 36 37 36 37 39 39 41 42 43 45 45 41 37 37 38 40 41 41 42 42 43 43 42 41 42 42 43 44 42 41 40 40 40 41 38 40 40 39 38 38 36 35 34 36 38 38 38 38 35 34 34 34
38 37 37 36 35 36 35 34 35 38 36 35 36 37 37 38 39 39 42 42 43 42 38 37 37 38 39 39 41 41 41 41 40 40 39 40 40 41 41 42 42 41 42 40 38 37 37 39 38 37 35 33 33 32 33 34 37 36 36 36 35 36 35
38 38 37 36 35 35 36 37 36 37 35 36 38 38 39 37 37 39 41 42 40 41 38 36 37 37 38 39 41 41 40 40 39 39 38 37 37 39 43 45 43 39 37 37 36 36 36 37 35 34 33 32 30 29 30 30 33 33 35 34 34 34 34
38 38 37 37 37 36 37 37 36 37 37 38 37 38 38 37 35 36 36 37 43 36 34 36 38 37 38 39 40 39 38 38 37 36 35 34 34 35 36 39 40 38 36 36 34 34 34 35 33 32 31 30 28 26 28 28 29 30 30 31 30 32 32
39 39 38 37 38 38 38 38 37 37 36 37 37 35 35 35 34 33 32 32 33 33 33 33 36 37 38 38 38 38 37 37 36 34 34 34 33 33 33 33 36 33 33 33 33 33 34 34 31 31 30 28 26 26 28 29 33 31 29 30 29 29 31
39 39 39 38 38 39 38 37 37 37 37 36 36 35 34 33 33 31 31 31 31 32 35 33 35 37 37 37 37 37 36 35 34 33 33 33 32 32 32 32 33 34 33 33 33 33 34 34 34 32 31 30 31 31 31 28 30 34 30 31 30 31 31
38 38 38 38 37 37 37 37 36 37 36 35 35 34 32 32 31 29 30 30 31 30 35 39 34 36 36 36 35 35 33 32 32 32 32 32 32 32 31 31 32 34 33 33 33 33 33 33 34 36 33 32 32 32 31 33 30 30 29 30 28 29 29
38 39 38 39 38 36 37 38 37 37 36 35 35 33 32 31 30 29 28 29 29 30 30 34 36 34 35 35 34 34 33 32 33 33 31 31 32 32 33 32 35 35 33 33 33 33 33 33 34 33 33 33 33 33 33 31 31 30 29 28 28 29 28
37 37 39 38 37 36 36 36 37 37 35 36 34 33 30 31 30 29 28 28 29 29 29 30 34 34 34 34 34 33 34 34 34 34 34 32 32 32 32 33 35 34 33 33 33 33 33 34 32 32 33 33 33 34 33 31 29 29 29 28 28 28 28